Location: Unspecified
(0.0000°N, 0.0000°E)
Time: 07:37:27
(UTC+00:00)

Courier 1B - Pass Details

Date: 24 September 2023
Orbit: 962 x 1208 km, 28.3° (Epoch: 06 December)

Event Time Altitude Azimuth Distance (km) Brightness Sun altitude
Rises 22:10:30 0° 297° (WNW) 3,859 - -64.6°
Reaches altitude 10° 22:13:19 10° 296° (WNW) 2,867 - -65.3°
Maximum altitude 22:20:16 76° 211° (SSW) 1,038 - -67.1°
Drops below altitude 10° 22:26:51 10° 125° (SE) 2,723 - -68.7°
Sets 22:29:28 0° 123° (ESE) 3,654 - -69.4°
